Flag for Burkina Faso Weather past 2 weeks in Koudougou, Burkina Faso

Now
90 °F

Scattered clouds.


Feels Like: 100 °F
Forecast: N/A
Wind: 7 mph from Southwest

Location: Ouagadougou Airport

Current Time: Jul 25, 2014 at 4:21:27 PM

Latest Report: Jul 25, 2014 at 3:00 PM


Visibility: N/A

Pressure: 29.89 "Hg

Humidity: 63%

Dew point: 75 °F

Location of KoudougouLocation

Historic Weather in Koudougou — Graph

°F

Koudougou temperature yesterday

Maximum temperature yesterday: 88 °F (at 3:00 PM)
Minimum temperature yesterday: 70 °F (at 5:00 AM)
Average temperature yesterday: 79 °F

Past Weeks' High & Low Weather Summary

 TemperatureHumidityPressure
High95 °F (Jul 10, 3:00 PM)100% (Jul 14, 2:00 AM)30.15 "Hg (Jul 14, 2:00 AM)
Low70 °F (Jul 17, 9:00 AM)44% (Jul 10, 4:00 PM)29.86 "Hg (Jul 13, 3:00 PM)
Average82 °F76%29.97 "Hg
* Reported Jul 10 3:00 PM — Jul 25 2:00 PM, Koudougou, Weather by CustomWeather, © 2014

Note: Actual official high and low records may vary slightly from our data, if they occured in-between our weather recording intervals... More about our weather records

Advertising

Koudougou weather history for previous 24 hours

 ConditionsComfort  
Time TempWeatherWind HumidityBarometerVisibility
2:00 PM
Jul 25
88 °FScattered clouds.9 mph66%29.89 "HgN/A
1:00 PM86 °FScattered clouds.8 mph70%29.92 "HgN/A
12:00 PM86 °FPartly sunny.9 mph66%29.95 "HgN/A
11:00 AM84 °FPartly sunny.12 mph70%29.98 "HgN/A
10:00 AM84 °FBroken clouds.13 mph74%29.98 "HgN/A
9:00 AM81 °FBroken clouds.14 mph79%29.98 "HgN/A
8:00 AM79 °FScattered clouds.10 mph84%29.98 "HgN/A
7:00 AM75 °FScattered clouds.8 mph100%29.98 "HgN/A
4:00 AM75 °FPassing clouds.2 mph94%29.92 "HgN/A
3:00 AM75 °FPassing clouds.5 mph94%29.92 "HgN/A
2:00 AM77 °FPassing clouds.3 mph94%29.95 "HgN/A
1:00 AM77 °FThunderstorms. Passing clouds.6 mph94%29.95 "HgN/A
12:00 AM79 °FThunderstorms. Partly cloudy.7 mph94%29.95 "HgN/A
11:00 PM
Jul 24
79 °FThunderstorms. Partly cloudy.2 mph89%29.98 "HgN/A
10:00 PM79 °FThunderstorms. Partly cloudy.1 mph89%29.98 "HgN/A
9:00 PM79 °FThunderstorms. Partly cloudy.2 mph89%29.95 "HgN/A
8:00 PM79 °FPartly cloudy.3 mph89%29.92 "HgN/A
7:00 PM81 °FPassing clouds.6 mph89%29.89 "HgN/A
6:00 PM82 °FScattered clouds.3 mph74%29.89 "HgN/A
5:00 PM84 °FScattered clouds.2 mph79%29.89 "HgN/A
4:00 PM81 °FLight rain. Broken clouds.7 mph89%29.89 "Hg4 mi
Weather by CustomWeather, © 2014

See weather overviewHow to use our weather pages